Tracking 18850 objects as of 22-Nov-2017
HD Live streaming from Space Station
objects crossing your sky now

TDRS 8

Track TDRS 8 now!
TDRS 8 is classified as:


NORAD ID: 26388
Int'l Code: 2000-034A
Perigee: 35,751.4 km
Apogee: 35,834.3 km
Inclination: 7.8 °
Period: 1,436.1 minutes
Semi major axis: 42163 km
RCS: 25.9293 m2 (large)
Launch date: June 30, 2000
Source: United States (US)
Launch site: AIR FORCE EASTERN TEST RANGE (AFETR)

Tracking and communications with space shuttle, other missions.
aabbcc
Your satellite tracking list
Your tracking list is empty




NASA's NSSDC Master Catalog

Two Line Element Set (TLE):
1 26388U 00034A   17325.73358248 -.00000227 +00000-0 +00000-0 0  9994
2 26388 007.7527 054.5062 0009832 230.5044 129.2753 01.00275038063801
Source of the keplerian elements: AFSPC